CPA416 VHHH-RKSI

Flight info

Callsign CPA416
Flight time 2h 59m
Altitude 39000
Route DALOL V631 ENVAR M750 ANLOT B1 APU DCT DRAKE Q11 WP900 L4 LIPLO Y741 ATOTI Y722 OLMEN OLMEN3C
Aircraft A333/H-SDE3GHIJ2J3J5M1RVWXY/LB2D1

Departure

Time 2026-05-05 14:24
Airport Hong Kong International Airport (VHHH)

Arrival

Time 2026-05-05 17:23
Airport Incheon International Airport (RKSI)
Time Latitude Longitude Altitude Speed Heading
2026-05-05 13:43 22.30926 113.92645 36 ft 0 kts 296°
2026-05-05 14:11 22.30919 113.92660 36 ft 4 kts 296°
2026-05-05 14:11 22.30907 113.92686 35 ft 4 kts 296°
2026-05-05 14:11 22.30898 113.92708 36 ft 4 kts 291°
2026-05-05 14:11 22.30893 113.92734 36 ft 4 kts 249°
2026-05-05 14:12 22.30909 113.92754 36 ft 4 kts 208°
2026-05-05 14:12 22.30932 113.92767 35 ft 4 kts 206°
2026-05-05 14:12 22.30944 113.92773 36 ft 0 kts 206°
2026-05-05 14:15 22.30932 113.92767 36 ft 4 kts 206°
2026-05-05 14:15 22.30903 113.92752 36 ft 7 kts 206°
2026-05-05 14:15 22.30854 113.92723 36 ft 9 kts 217°
2026-05-05 14:16 22.30824 113.92668 36 ft 9 kts 248°
2026-05-05 14:16 22.30799 113.92594 36 ft 11 kts 248°
2026-05-05 14:16 22.30771 113.92515 36 ft 11 kts 249°
2026-05-05 14:16 22.30743 113.92421 36 ft 15 kts 252°
2026-05-05 14:17 22.30679 113.92376 36 ft 11 kts 173°
2026-05-05 14:17 22.30624 113.92331 36 ft 12 kts 239°
2026-05-05 14:17 22.30590 113.92238 36 ft 15 kts 250°
2026-05-05 14:17 22.30555 113.92129 36 ft 16 kts 251°
2026-05-05 14:18 22.30515 113.92007 36 ft 18 kts 251°
2026-05-05 14:18 22.30470 113.91863 36 ft 21 kts 251°
2026-05-05 14:18 22.30420 113.91708 36 ft 23 kts 251°
2026-05-05 14:18 22.30368 113.91545 36 ft 23 kts 251°
2026-05-05 14:19 22.30314 113.91377 36 ft 25 kts 251°
2026-05-05 14:19 22.30258 113.91203 36 ft 24 kts 251°
2026-05-05 14:19 22.30204 113.91034 36 ft 24 kts 251°
2026-05-05 14:19 22.30149 113.90867 36 ft 23 kts 250°
2026-05-05 14:20 22.30094 113.90705 36 ft 23 kts 250°
2026-05-05 14:20 22.30041 113.90545 36 ft 22 kts 250°
2026-05-05 14:20 22.29993 113.90387 36 ft 22 kts 250°
2026-05-05 14:20 22.29942 113.90234 36 ft 21 kts 250°
2026-05-05 14:21 22.29893 113.90083 36 ft 21 kts 253°
2026-05-05 14:21 22.29848 113.89933 36 ft 21 kts 252°
2026-05-05 14:21 22.29805 113.89805 36 ft 13 kts 241°
2026-05-05 14:21 22.29733 113.89775 35 ft 11 kts 167°
2026-05-05 14:22 22.29653 113.89795 33 ft 13 kts 165°
2026-05-05 14:22 22.29605 113.89842 33 ft 4 kts 87°
2026-05-05 14:22 22.29625 113.89868 34 ft 10 kts 51°
2026-05-05 14:22 22.29675 113.89976 34 ft 22 kts 71°
2026-05-05 14:23 22.29768 113.90265 34 ft 68 kts 71°
2026-05-05 14:23 22.29988 113.90935 35 ft 121 kts 70°
2026-05-05 14:23 22.30321 113.91954 40 ft 166 kts 70°
2026-05-05 14:23 22.30716 113.93149 625 ft 171 kts 71°
2026-05-05 14:24 22.31104 113.94364 1337 ft 172 kts 72°
2026-05-05 14:24 22.31479 113.95615 1903 ft 183 kts 73°
2026-05-05 14:24 22.31884 113.96995 2315 ft 202 kts 72°
2026-05-05 14:24 22.32346 113.98493 2796 ft 215 kts 71°
2026-05-05 14:25 22.32854 114.00019 3524 ft 219 kts 70°
2026-05-05 14:25 22.33390 114.01608 4146 ft 230 kts 71°
2026-05-05 14:25 22.33766 114.03303 4852 ft 236 kts 85°
2026-05-05 14:25 22.33643 114.05076 5571 ft 240 kts 106°
2026-05-05 14:26 22.32924 114.06702 6312 ft 242 kts 128°
2026-05-05 14:26 22.31695 114.07941 7072 ft 244 kts 149°
2026-05-05 14:26 22.30122 114.08615 7806 ft 246 kts 171°
2026-05-05 14:26 22.28404 114.08762 8522 ft 250 kts 180°
2026-05-05 14:27 22.26655 114.08754 9234 ft 253 kts 182°
2026-05-05 14:27 22.24883 114.08726 9940 ft 256 kts 182°
2026-05-05 14:27 22.23060 114.08692 10395 ft 271 kts 182°
2026-05-05 14:27 22.21106 114.08661 10665 ft 291 kts 182°
2026-05-05 14:28 22.19016 114.08684 10964 ft 310 kts 176°
2026-05-05 14:28 22.16872 114.09297 11225 ft 332 kts 154°
2026-05-05 14:28 22.15040 114.10906 11462 ft 352 kts 129°
2026-05-05 14:28 22.13734 114.13221 11701 ft 370 kts 118°
2026-05-05 14:29 22.12561 114.15752 11971 ft 384 kts 117°
2026-05-05 14:29 22.11366 114.18370 12398 ft 393 kts 117°
2026-05-05 14:29 22.10137 114.21023 12946 ft 398 kts 117°
2026-05-05 14:29 22.08881 114.23693 13489 ft 402 kts 119°
2026-05-05 14:30 22.07328 114.26196 14016 ft 404 kts 134°
2026-05-05 14:30 22.05231 114.28205 14536 ft 405 kts 144°
2026-05-05 14:30 22.02961 114.30020 15058 ft 408 kts 146°
2026-05-05 14:30 22.00646 114.31822 15537 ft 412 kts 146°
2026-05-05 14:31 21.98315 114.33638 16035 ft 415 kts 146°
2026-05-05 14:31 21.95968 114.35475 16521 ft 419 kts 146°
2026-05-05 14:31 21.93608 114.37327 16981 ft 422 kts 146°
2026-05-05 14:31 21.91226 114.39198 17436 ft 425 kts 146°
2026-05-05 14:32 21.88830 114.41087 17878 ft 428 kts 144°
2026-05-05 14:32 21.86567 114.43196 18297 ft 434 kts 134°
2026-05-05 14:32 21.84763 114.45810 18702 ft 439 kts 120°
2026-05-05 14:32 21.83579 114.48848 19123 ft 443 kts 108°
2026-05-05 14:33 21.82716 114.52042 19519 ft 446 kts 106°
2026-05-05 14:33 21.81903 114.55272 19906 ft 448 kts 106°
2026-05-05 14:33 21.81085 114.58521 20265 ft 451 kts 106°
2026-05-05 14:33 21.80254 114.61788 20624 ft 454 kts 106°
2026-05-05 14:34 21.79413 114.65068 20964 ft 456 kts 106°
2026-05-05 14:34 21.78563 114.68367 21296 ft 459 kts 106°
2026-05-05 14:34 21.77705 114.71682 21649 ft 461 kts 106°
2026-05-05 14:34 21.76842 114.75013 22002 ft 463 kts 106°
2026-05-05 14:35 21.75973 114.78361 22312 ft 466 kts 106°
2026-05-05 14:35 21.75105 114.81730 22639 ft 469 kts 105°
2026-05-05 14:35 21.74488 114.85180 22959 ft 471 kts 96°
2026-05-05 14:35 21.74263 114.88703 23283 ft 474 kts 92°
2026-05-05 14:36 21.74200 114.92264 23617 ft 476 kts 90°
2026-05-05 14:36 21.74213 114.95831 23908 ft 479 kts 89°
2026-05-05 14:36 21.74257 114.99424 24209 ft 482 kts 89°
2026-05-05 14:36 21.74302 115.03035 24520 ft 484 kts 89°
2026-05-05 14:37 21.74332 115.06662 24808 ft 486 kts 90°
2026-05-05 14:37 21.74348 115.10303 25096 ft 489 kts 90°
2026-05-05 14:37 21.74352 115.13969 25393 ft 490 kts 90°
2026-05-05 14:37 21.74349 115.17646 25665 ft 493 kts 90°
2026-05-05 14:38 21.74342 115.21344 25937 ft 496 kts 90°
2026-05-05 14:38 21.74334 115.25061 26220 ft 498 kts 90°
2026-05-05 14:38 21.74324 115.28789 26496 ft 500 kts 90°
2026-05-05 14:38 21.74316 115.32539 26771 ft 503 kts 90°
2026-05-05 14:39 21.74308 115.36304 27059 ft 505 kts 90°
2026-05-05 14:39 21.74298 115.40086 27334 ft 507 kts 90°
2026-05-05 14:39 21.74286 115.43888 27613 ft 509 kts 90°
2026-05-05 14:39 21.74275 115.47701 27884 ft 511 kts 90°
2026-05-05 14:40 21.74263 115.51531 28137 ft 513 kts 90°
2026-05-05 14:40 21.74249 115.55379 28389 ft 516 kts 90°
2026-05-05 14:40 21.74234 115.59244 28646 ft 517 kts 90°
2026-05-05 14:40 21.74218 115.63124 28852 ft 520 kts 90°
2026-05-05 14:41 21.74203 115.67021 29107 ft 522 kts 90°
2026-05-05 14:41 21.74188 115.70934 29358 ft 524 kts 90°
2026-05-05 14:41 21.74172 115.74845 29701 ft 523 kts 90°
2026-05-05 14:41 21.74156 115.78754 30047 ft 522 kts 90°
2026-05-05 14:42 21.74138 115.82656 30388 ft 521 kts 90°
2026-05-05 14:42 21.74126 115.85233 30609 ft 521 kts 90°
2026-05-05 14:42 21.74099 115.90440 31059 ft 520 kts 90°
2026-05-05 14:42 21.74085 115.93018 31260 ft 520 kts 90°
2026-05-05 14:43 21.74064 115.96903 31573 ft 520 kts 90°
2026-05-05 14:43 21.74043 116.00789 31890 ft 519 kts 90°
2026-05-05 14:43 21.74019 116.04671 32208 ft 519 kts 90°
2026-05-05 14:43 21.73994 116.08545 32532 ft 518 kts 90°
2026-05-05 14:44 21.73968 116.12414 32841 ft 517 kts 90°
2026-05-05 14:44 21.73940 116.16281 33136 ft 517 kts 90°
2026-05-05 14:44 21.73914 116.20146 33437 ft 517 kts 90°
2026-05-05 14:44 21.73887 116.24009 33735 ft 516 kts 90°
2026-05-05 14:45 21.73858 116.27864 34021 ft 516 kts 90°
2026-05-05 14:45 21.73829 116.31718 34317 ft 515 kts 90°
2026-05-05 14:45 21.73799 116.35563 34619 ft 514 kts 90°
2026-05-05 14:45 21.73767 116.39401 34891 ft 513 kts 90°
2026-05-05 14:46 21.73735 116.43233 35169 ft 512 kts 90°
2026-05-05 14:46 21.73702 116.47063 35434 ft 512 kts 91°
2026-05-05 14:46 21.73668 116.50887 35701 ft 511 kts 90°
2026-05-05 14:46 21.73632 116.54704 35961 ft 510 kts 91°
2026-05-05 14:47 21.73598 116.58517 36209 ft 510 kts 90°
2026-05-05 14:47 21.73563 116.62327 36449 ft 509 kts 91°
2026-05-05 14:47 21.73526 116.66135 36658 ft 509 kts 91°
2026-05-05 14:47 21.73487 116.69936 36929 ft 507 kts 91°
2026-05-05 14:48 21.73455 116.73714 37291 ft 503 kts 89°
2026-05-05 14:48 21.73718 116.77452 37578 ft 500 kts 81°
2026-05-05 14:48 21.74486 116.81092 37785 ft 499 kts 71°
2026-05-05 14:48 21.75586 116.84625 37995 ft 498 kts 69°
2026-05-05 14:49 21.76788 116.88114 38183 ft 497 kts 68°
2026-05-05 14:49 21.78044 116.91577 38345 ft 497 kts 67°
2026-05-05 14:49 21.79323 116.95034 38512 ft 497 kts 67°
2026-05-05 14:49 21.80603 116.98490 38661 ft 497 kts 67°
2026-05-05 14:50 21.81877 117.01947 38811 ft 497 kts 67°
2026-05-05 14:50 21.83143 117.05411 38966 ft 498 kts 67°
2026-05-05 14:50 21.85656 117.12349 39035 ft 497 kts 68°
2026-05-05 14:51 21.88147 117.19271 39036 ft 495 kts 68°
2026-05-05 14:51 21.90632 117.26187 39037 ft 495 kts 68°
2026-05-05 14:52 21.93115 117.33105 39035 ft 495 kts 68°
2026-05-05 14:52 21.95595 117.40026 39036 ft 496 kts 68°
2026-05-05 14:53 21.98078 117.46954 39036 ft 496 kts 67°
2026-05-05 14:53 22.01203 117.53540 39034 ft 493 kts 58°
2026-05-05 14:54 22.04737 117.59896 39035 ft 495 kts 57°
2026-05-05 14:54 22.08347 117.66213 39036 ft 495 kts 56°
2026-05-05 14:55 22.11959 117.72537 39035 ft 495 kts 57°
2026-05-05 14:55 22.15554 117.78871 39031 ft 495 kts 57°
2026-05-05 14:56 22.19139 117.85211 39026 ft 494 kts 57°
2026-05-05 14:56 22.22714 117.91546 39027 ft 494 kts 57°
2026-05-05 14:57 22.26291 117.97887 39026 ft 494 kts 57°
2026-05-05 14:57 22.29905 118.04206 39028 ft 495 kts 56°
2026-05-05 14:58 22.33575 118.10485 39028 ft 494 kts 56°
2026-05-05 14:58 22.37249 118.16762 39024 ft 495 kts 56°
2026-05-05 14:59 22.40914 118.23065 39028 ft 495 kts 56°
2026-05-05 14:59 22.44519 118.29403 39026 ft 495 kts 57°
2026-05-05 15:00 22.47505 118.34694 39027 ft 496 kts 57°
2026-05-05 15:00 22.51704 118.42136 39026 ft 496 kts 57°
2026-05-05 15:01 22.55302 118.48508 39010 ft 497 kts 57°
2026-05-05 15:01 22.58912 118.54880 39006 ft 497 kts 57°
2026-05-05 15:02 22.62543 118.61250 39011 ft 497 kts 57°
2026-05-05 15:02 22.66171 118.67618 39014 ft 497 kts 57°
2026-05-05 15:03 22.69801 118.73996 39010 ft 498 kts 57°
2026-05-05 15:03 22.73432 118.80383 39012 ft 498 kts 57°
2026-05-05 15:04 22.77053 118.86775 39006 ft 498 kts 57°
2026-05-05 15:04 22.80674 118.93174 39007 ft 498 kts 57°
2026-05-05 15:05 22.86116 119.02796 39001 ft 500 kts 57°
2026-05-05 15:06 22.89755 119.09242 39004 ft 501 kts 57°
2026-05-05 15:06 22.93389 119.15691 39007 ft 501 kts 57°
2026-05-05 15:07 22.97025 119.22150 39013 ft 502 kts 57°
2026-05-05 15:07 23.00661 119.28613 39007 ft 502 kts 57°
2026-05-05 15:08 23.04293 119.35080 39014 ft 502 kts 57°
2026-05-05 15:08 23.07926 119.41558 39013 ft 502 kts 57°
2026-05-05 15:09 23.11560 119.48043 39026 ft 502 kts 57°
2026-05-05 15:09 23.15193 119.54533 39027 ft 503 kts 57°
2026-05-05 15:10 23.18827 119.61031 39007 ft 503 kts 58°
2026-05-05 15:10 23.22458 119.67534 39026 ft 503 kts 58°
2026-05-05 15:11 23.26091 119.74046 39010 ft 504 kts 58°
2026-05-05 15:11 23.29723 119.80562 39026 ft 504 kts 58°
2026-05-05 15:12 23.33353 119.87084 39012 ft 504 kts 58°
2026-05-05 15:12 23.37385 119.93301 39011 ft 501 kts 45°
2026-05-05 15:13 23.42293 119.98682 39026 ft 501 kts 41°
2026-05-05 15:13 23.47364 120.03901 39012 ft 502 kts 41°
2026-05-05 15:14 23.52463 120.09101 39026 ft 502 kts 41°
2026-05-05 15:14 23.57547 120.14318 39026 ft 502 kts 41°
2026-05-05 15:15 23.62623 120.19558 39020 ft 503 kts 41°
2026-05-05 15:15 23.67664 120.24772 39028 ft 502 kts 41°
2026-05-05 15:16 23.72771 120.30059 39026 ft 503 kts 41°
2026-05-05 15:16 23.77792 120.35266 39028 ft 503 kts 41°
2026-05-05 15:17 23.82860 120.40526 39037 ft 502 kts 41°
2026-05-05 15:17 23.87928 120.45787 39045 ft 503 kts 41°
2026-05-05 15:18 23.93260 120.50700 39045 ft 501 kts 35°
2026-05-05 15:18 23.98824 120.55266 39045 ft 500 kts 34°
2026-05-05 15:19 24.04429 120.59775 39045 ft 500 kts 33°
2026-05-05 15:19 24.10050 120.64292 39045 ft 501 kts 34°
2026-05-05 15:20 24.15665 120.68823 39045 ft 502 kts 34°
2026-05-05 15:20 24.21274 120.73362 39046 ft 502 kts 34°
2026-05-05 15:21 24.26890 120.77913 39045 ft 502 kts 34°
2026-05-05 15:21 24.32505 120.82469 39045 ft 502 kts 34°
2026-05-05 15:22 24.38122 120.87033 39044 ft 502 kts 34°
2026-05-05 15:22 24.43732 120.91594 39046 ft 502 kts 34°
2026-05-05 15:23 24.49351 120.96169 39045 ft 503 kts 34°
2026-05-05 15:23 24.54960 121.00740 39036 ft 502 kts 34°
2026-05-05 15:24 24.60573 121.05327 39034 ft 503 kts 34°
2026-05-05 15:24 24.65235 121.09146 39037 ft 503 kts 34°
2026-05-05 15:25 24.70887 121.13760 39028 ft 503 kts 34°
2026-05-05 15:25 24.76463 121.18315 39028 ft 502 kts 34°
2026-05-05 15:26 24.82071 121.22907 39027 ft 502 kts 34°
2026-05-05 15:26 24.87684 121.27512 39011 ft 503 kts 34°
2026-05-05 15:27 24.93288 121.32120 39026 ft 503 kts 34°
2026-05-05 15:27 24.98898 121.36734 39015 ft 503 kts 34°
2026-05-05 15:28 25.04514 121.41357 39013 ft 504 kts 34°
2026-05-05 15:28 25.10124 121.45982 39009 ft 504 kts 34°
2026-05-05 15:29 25.15731 121.50627 39014 ft 504 kts 37°
2026-05-05 15:29 25.20739 121.56077 39017 ft 507 kts 46°
2026-05-05 15:30 25.25437 121.61901 39022 ft 508 kts 47°
2026-05-05 15:30 25.30071 121.67802 39022 ft 509 kts 47°
2026-05-05 15:31 25.34705 121.73700 39012 ft 509 kts 47°
2026-05-05 15:31 25.39355 121.79602 39013 ft 509 kts 47°
2026-05-05 15:32 25.44008 121.85503 39027 ft 509 kts 47°
2026-05-05 15:32 25.48665 121.91416 39015 ft 509 kts 47°
2026-05-05 15:33 25.53319 121.97329 39008 ft 510 kts 47°
2026-05-05 15:33 25.57945 122.03215 39017 ft 510 kts 47°
2026-05-05 15:34 25.62991 122.08757 39020 ft 506 kts 35°
2026-05-05 15:34 25.68647 122.13399 39010 ft 506 kts 33°
2026-05-05 15:35 25.74409 122.17871 39015 ft 506 kts 32°
2026-05-05 15:35 25.80183 122.22323 39023 ft 506 kts 32°
2026-05-05 15:36 25.85960 122.26807 39020 ft 506 kts 32°
2026-05-05 15:36 25.91726 122.31306 39017 ft 506 kts 32°
2026-05-05 15:37 25.97484 122.35807 39007 ft 506 kts 32°
2026-05-05 15:37 26.03238 122.40313 39009 ft 506 kts 33°
2026-05-05 15:38 26.08996 122.44826 39011 ft 506 kts 32°
2026-05-05 15:38 26.14757 122.49346 39015 ft 507 kts 33°
2026-05-05 15:39 26.20477 122.53844 39012 ft 507 kts 33°
2026-05-05 15:39 26.26235 122.58382 39007 ft 507 kts 33°
2026-05-05 15:40 26.31985 122.62919 39010 ft 507 kts 33°
2026-05-05 15:40 26.37753 122.67475 39016 ft 507 kts 33°
2026-05-05 15:41 26.43512 122.72032 39004 ft 507 kts 33°
2026-05-05 15:41 26.49265 122.76588 39007 ft 508 kts 33°
2026-05-05 15:42 26.55026 122.81154 39013 ft 508 kts 33°
2026-05-05 15:42 26.60790 122.85716 38999 ft 508 kts 33°
2026-05-05 15:43 26.66557 122.90283 39003 ft 508 kts 33°
2026-05-05 15:43 26.72320 122.94856 39008 ft 508 kts 33°
2026-05-05 15:44 26.78083 122.99438 39026 ft 508 kts 33°
2026-05-05 15:44 26.83844 123.04028 39022 ft 509 kts 33°
2026-05-05 15:45 26.89612 123.08635 39018 ft 509 kts 33°
2026-05-05 15:45 26.95374 123.13244 39027 ft 509 kts 33°
2026-05-05 15:46 27.01140 123.17860 39026 ft 510 kts 33°
2026-05-05 15:46 27.06907 123.22485 39024 ft 510 kts 33°
2026-05-05 15:47 27.12674 123.27118 39011 ft 510 kts 33°
2026-05-05 15:47 27.18442 123.31755 39015 ft 510 kts 33°
2026-05-05 15:48 27.24217 123.36405 39006 ft 511 kts 33°
2026-05-05 15:48 27.29989 123.41058 39010 ft 511 kts 33°
2026-05-05 15:49 27.35765 123.45719 39015 ft 511 kts 33°
2026-05-05 15:49 27.41542 123.50387 39009 ft 511 kts 33°
2026-05-05 15:50 27.47320 123.55062 38999 ft 512 kts 33°
2026-05-05 15:50 27.53108 123.59755 39003 ft 512 kts 33°
2026-05-05 15:51 27.58890 123.64447 39002 ft 513 kts 33°
2026-05-05 15:51 27.64602 123.69199 39012 ft 514 kts 35°
2026-05-05 15:52 27.70227 123.74183 39011 ft 515 kts 36°
2026-05-05 15:52 27.75833 123.79209 39010 ft 515 kts 36°
2026-05-05 15:53 27.81455 123.84224 39025 ft 515 kts 36°
2026-05-05 15:53 27.87090 123.89238 39021 ft 515 kts 36°
2026-05-05 15:54 27.92720 123.94249 39015 ft 515 kts 36°
2026-05-05 15:54 27.98353 123.99266 39027 ft 516 kts 36°
2026-05-05 15:55 28.03987 124.04292 39012 ft 516 kts 36°
2026-05-05 15:55 28.09624 124.09329 39025 ft 516 kts 36°
2026-05-05 15:56 28.15253 124.14366 39018 ft 516 kts 36°
2026-05-05 15:56 28.20876 124.19407 39025 ft 516 kts 36°
2026-05-05 15:57 28.26500 124.24456 39017 ft 516 kts 36°
2026-05-05 15:57 28.32128 124.29514 39020 ft 516 kts 36°
2026-05-05 15:58 28.37751 124.34574 39023 ft 516 kts 36°
2026-05-05 15:58 28.43368 124.39638 39026 ft 516 kts 36°
2026-05-05 15:59 28.48984 124.44708 39026 ft 516 kts 36°
2026-05-05 15:59 28.54600 124.49782 39034 ft 516 kts 36°
2026-05-05 16:00 28.60179 124.54832 39054 ft 516 kts 36°
2026-05-05 16:00 28.65791 124.59916 39061 ft 516 kts 36°
2026-05-05 16:01 28.71399 124.65008 39063 ft 515 kts 36°
2026-05-05 16:01 28.77180 124.69783 39063 ft 511 kts 25°
2026-05-05 16:02 28.83659 124.72935 39064 ft 506 kts 16°
2026-05-05 16:02 28.90289 124.75619 39063 ft 506 kts 15°
2026-05-05 16:03 28.96947 124.78217 39063 ft 506 kts 15°
2026-05-05 16:03 29.03604 124.80837 39063 ft 506 kts 15°
2026-05-05 16:04 29.10251 124.83482 39063 ft 506 kts 15°
2026-05-05 16:04 29.16898 124.86145 39057 ft 506 kts 15°
2026-05-05 16:05 29.23547 124.88809 39054 ft 506 kts 15°
2026-05-05 16:05 29.30192 124.91475 39055 ft 506 kts 15°
2026-05-05 16:06 29.36834 124.94147 39054 ft 506 kts 15°
2026-05-05 16:06 29.43484 124.96821 39063 ft 507 kts 15°
2026-05-05 16:07 29.50135 124.99500 39063 ft 506 kts 15°
2026-05-05 16:07 29.56780 125.02178 39063 ft 506 kts 15°
2026-05-05 16:08 29.63425 125.04860 39063 ft 506 kts 15°
2026-05-05 16:08 29.70060 125.07551 39064 ft 506 kts 15°
2026-05-05 16:09 29.76698 125.10246 39054 ft 506 kts 15°
2026-05-05 16:09 29.83333 125.12932 39054 ft 505 kts 15°
2026-05-05 16:10 29.88847 125.15167 39055 ft 506 kts 15°
2026-05-05 16:10 29.95485 125.17866 39064 ft 506 kts 15°
2026-05-05 16:11 30.02119 125.20568 39063 ft 506 kts 15°
2026-05-05 16:12 30.15388 125.25997 39063 ft 506 kts 15°
2026-05-05 16:13 30.31963 125.32802 39064 ft 506 kts 15°
2026-05-05 16:13 30.38595 125.35531 39065 ft 506 kts 15°
2026-05-05 16:14 30.51873 125.41007 39063 ft 506 kts 15°
2026-05-05 16:15 30.65124 125.46489 39073 ft 506 kts 15°
2026-05-05 16:16 30.78370 125.51984 39073 ft 505 kts 15°
2026-05-05 16:17 30.88301 125.56112 39073 ft 505 kts 15°
2026-05-05 16:18 30.98232 125.60250 39073 ft 505 kts 15°
2026-05-05 16:19 31.08159 125.64396 39082 ft 505 kts 16°
2026-05-05 16:19 31.18075 125.68546 39082 ft 504 kts 15°
2026-05-05 16:20 31.31302 125.74100 39082 ft 505 kts 16°
2026-05-05 16:22 31.47815 125.81051 39082 ft 506 kts 16°
2026-05-05 16:23 31.61069 125.86648 39091 ft 506 kts 16°
2026-05-05 16:23 31.71013 125.90830 39091 ft 506 kts 16°
2026-05-05 16:24 31.77643 125.93623 39091 ft 506 kts 15°
2026-05-05 16:25 31.87575 125.97814 39097 ft 504 kts 16°
2026-05-05 16:25 31.97444 126.01996 39110 ft 502 kts 16°
2026-05-05 16:26 32.10590 126.07567 39110 ft 501 kts 16°
2026-05-05 16:27 32.17159 126.10352 39119 ft 502 kts 16°
2026-05-05 16:27 32.23735 126.13139 39119 ft 502 kts 16°
2026-05-05 16:28 32.30312 126.15932 39119 ft 502 kts 16°
2026-05-05 16:28 32.36880 126.18728 39119 ft 502 kts 16°
2026-05-05 16:29 32.43449 126.21529 39119 ft 502 kts 16°
2026-05-05 16:29 32.50014 126.24334 39118 ft 501 kts 16°
2026-05-05 16:30 32.56570 126.27140 39119 ft 501 kts 16°
2026-05-05 16:30 32.63131 126.29954 39119 ft 501 kts 16°
2026-05-05 16:31 32.69679 126.32769 39126 ft 501 kts 16°
2026-05-05 16:31 32.76226 126.35586 39128 ft 500 kts 16°
2026-05-05 16:32 32.82762 126.38406 39128 ft 500 kts 17°
2026-05-05 16:32 32.89294 126.41230 39130 ft 499 kts 17°
2026-05-05 16:33 32.95818 126.44048 39129 ft 499 kts 17°
2026-05-05 16:33 33.02344 126.46867 39129 ft 498 kts 17°
2026-05-05 16:34 33.08864 126.49668 39127 ft 498 kts 17°
2026-05-05 16:34 33.15394 126.52472 39129 ft 500 kts 16°
2026-05-05 16:35 33.21941 126.55293 39128 ft 500 kts 16°
2026-05-05 16:35 33.28491 126.58121 39128 ft 500 kts 17°
2026-05-05 16:36 33.35032 126.60952 39126 ft 500 kts 17°
2026-05-05 16:36 33.41571 126.63793 39128 ft 500 kts 17°
2026-05-05 16:37 33.48109 126.66640 39128 ft 500 kts 17°
2026-05-05 16:37 33.54632 126.69289 39128 ft 496 kts
2026-05-05 16:38 33.61406 126.70483 39129 ft 491 kts
2026-05-05 16:38 33.68209 126.71246 39128 ft 491 kts
2026-05-05 16:39 33.75007 126.71921 39128 ft 491 kts
2026-05-05 16:39 33.81811 126.72612 39128 ft 491 kts
2026-05-05 16:40 33.88616 126.73325 39128 ft 491 kts
2026-05-05 16:40 33.95410 126.74037 39128 ft 490 kts
2026-05-05 16:41 34.02211 126.74748 39128 ft 490 kts
2026-05-05 16:41 34.09002 126.75458 39128 ft 489 kts
2026-05-05 16:42 34.15772 126.76172 39128 ft 488 kts
2026-05-05 16:42 34.22537 126.76882 39129 ft 488 kts
2026-05-05 16:43 34.29298 126.77595 39128 ft 488 kts
2026-05-05 16:43 34.36060 126.78311 39128 ft 488 kts
2026-05-05 16:44 34.42816 126.79031 39127 ft 488 kts
2026-05-05 16:44 34.49577 126.79751 39129 ft 487 kts
2026-05-05 16:45 34.56332 126.80472 39127 ft 487 kts
2026-05-05 16:45 34.63078 126.81193 39128 ft 487 kts
2026-05-05 16:46 34.69826 126.81918 39128 ft 486 kts
2026-05-05 16:46 34.76572 126.82642 39128 ft 486 kts
2026-05-05 16:47 34.83309 126.83365 39127 ft 486 kts
2026-05-05 16:47 34.90044 126.84090 39128 ft 486 kts
2026-05-05 16:48 34.96774 126.84817 39128 ft 485 kts
2026-05-05 16:48 35.03453 126.85539 39128 ft 485 kts
2026-05-05 16:49 35.10166 126.86266 39129 ft 484 kts
2026-05-05 16:49 35.16884 126.86994 39128 ft 484 kts
2026-05-05 16:50 35.23589 126.87721 39128 ft 484 kts
2026-05-05 16:50 35.30294 126.88449 39130 ft 484 kts
2026-05-05 16:51 35.36998 126.89180 39120 ft 483 kts
2026-05-05 16:51 35.43687 126.89909 39119 ft 483 kts
2026-05-05 16:52 35.50379 126.90643 39119 ft 482 kts
2026-05-05 16:52 35.57065 126.91371 39119 ft 482 kts
2026-05-05 16:53 35.63746 126.92100 39118 ft 482 kts
2026-05-05 16:53 35.70423 126.92831 39119 ft 482 kts
2026-05-05 16:54 35.77099 126.93564 39119 ft 482 kts
2026-05-05 16:54 35.82652 126.94175 39119 ft 481 kts
2026-05-05 16:55 35.89319 126.94909 39119 ft 481 kts
2026-05-05 16:55 35.97118 126.95770 39110 ft 481 kts
2026-05-05 16:56 36.02663 126.96383 39110 ft 481 kts
2026-05-05 16:56 36.09316 126.97121 39109 ft 479 kts
2026-05-05 16:57 36.15941 126.97855 39110 ft 477 kts
2026-05-05 16:57 36.22558 126.98590 39110 ft 477 kts
2026-05-05 16:58 36.29173 126.99326 39110 ft 477 kts
2026-05-05 16:58 36.35781 127.00061 39109 ft 477 kts
2026-05-05 16:59 36.42395 127.00230 38934 ft 477 kts 356°
2026-05-05 16:59 36.45727 127.00152 38356 ft 479 kts 356°
2026-05-05 16:59 36.49068 127.00040 37664 ft 481 kts 356°
2026-05-05 17:00 36.52422 126.99909 37004 ft 483 kts 356°
2026-05-05 17:00 36.55780 126.99775 36413 ft 483 kts 356°
2026-05-05 17:00 36.59140 126.99644 35805 ft 483 kts 356°
2026-05-05 17:00 36.62501 126.99517 35080 ft 485 kts 356°
2026-05-05 17:01 36.65887 126.99392 34316 ft 488 kts 356°
2026-05-05 17:01 36.69235 126.99205 33589 ft 488 kts 352°
2026-05-05 17:01 36.72590 126.98301 32840 ft 487 kts 338°
2026-05-05 17:01 36.75587 126.96384 32074 ft 485 kts 323°
2026-05-05 17:02 36.78105 126.93695 31285 ft 484 kts 315°
2026-05-05 17:02 36.80496 126.90721 30458 ft 486 kts 314°
2026-05-05 17:02 36.82864 126.87706 29592 ft 487 kts 314°
2026-05-05 17:02 36.85235 126.84692 28815 ft 487 kts 314°
2026-05-05 17:03 36.87605 126.81690 28157 ft 483 kts 314°
2026-05-05 17:03 36.89954 126.78717 27491 ft 479 kts 314°
2026-05-05 17:03 36.92285 126.75769 26866 ft 475 kts 314°
2026-05-05 17:03 36.94594 126.72849 26221 ft 470 kts 314°
2026-05-05 17:04 36.96889 126.69946 25593 ft 466 kts 314°
2026-05-05 17:04 36.99156 126.67075 24920 ft 463 kts 314°
2026-05-05 17:04 37.01252 126.64053 24276 ft 458 kts 304°
2026-05-05 17:04 37.02734 126.60552 23615 ft 454 kts 289°
2026-05-05 17:05 37.03498 126.56745 22995 ft 449 kts 282°
2026-05-05 17:05 37.04450 126.53069 22016 ft 441 kts 296°
2026-05-05 17:05 37.06151 126.49915 20908 ft 435 kts 313°
2026-05-05 17:05 37.08419 126.47472 20105 ft 424 kts 322°
2026-05-05 17:06 37.10749 126.45330 19529 ft 408 kts 324°
2026-05-05 17:06 37.13009 126.43295 19311 ft 392 kts 324°
2026-05-05 17:06 37.15179 126.41335 19223 ft 378 kts 324°
2026-05-05 17:06 37.17276 126.39438 19084 ft 366 kts 324°
2026-05-05 17:07 37.19440 126.37871 18923 ft 355 kts 338°
2026-05-05 17:07 37.21807 126.37151 18699 ft 347 kts 356°
2026-05-05 17:07 37.24170 126.37415 18530 ft 338 kts 15°
2026-05-05 17:07 37.26294 126.38564 18341 ft 329 kts 33°
2026-05-05 17:08 37.28077 126.40304 18209 ft 320 kts 41°
2026-05-05 17:08 37.29715 126.42145 18053 ft 312 kts 42°
2026-05-05 17:08 37.31297 126.43957 17910 ft 303 kts 42°
2026-05-05 17:08 37.32840 126.45719 17788 ft 295 kts 42°
2026-05-05 17:09 37.34341 126.47425 17647 ft 287 kts 42°
2026-05-05 17:09 37.35799 126.49078 17552 ft 279 kts 42°
2026-05-05 17:09 37.37248 126.50716 17363 ft 281 kts 42°
2026-05-05 17:09 37.38678 126.52394 17027 ft 282 kts 47°
2026-05-05 17:10 37.39983 126.54271 16481 ft 290 kts 50°
2026-05-05 17:10 37.41278 126.56260 15902 ft 298 kts 51°
2026-05-05 17:10 37.42589 126.58320 15337 ft 305 kts 51°
2026-05-05 17:10 37.43924 126.60438 14751 ft 312 kts 52°
2026-05-05 17:11 37.45274 126.62590 14343 ft 312 kts 52°
2026-05-05 17:11 37.46595 126.64699 14193 ft 302 kts 52°
2026-05-05 17:11 37.47877 126.66742 14048 ft 293 kts 50°
2026-05-05 17:11 37.49265 126.68564 13917 ft 284 kts 43°
2026-05-05 17:12 37.50700 126.70220 13783 ft 276 kts 42°
2026-05-05 17:12 37.52119 126.71792 13621 ft 269 kts 38°
2026-05-05 17:12 37.53767 126.72836 13310 ft 267 kts
2026-05-05 17:12 37.55585 126.72624 12972 ft 265 kts 335°
2026-05-05 17:13 37.57056 126.71264 12652 ft 263 kts 314°
2026-05-05 17:13 37.58293 126.69582 12321 ft 260 kts 311°
2026-05-05 17:13 37.59488 126.67875 11854 ft 260 kts 310°
2026-05-05 17:13 37.60679 126.66170 11428 ft 258 kts 311°
2026-05-05 17:14 37.61863 126.64493 11014 ft 255 kts 311°
2026-05-05 17:14 37.62924 126.62716 10597 ft 252 kts 297°
2026-05-05 17:14 37.63656 126.60739 10168 ft 247 kts 291°
2026-05-05 17:14 37.64294 126.58740 9650 ft 245 kts 290°
2026-05-05 17:15 37.64918 126.56747 9174 ft 242 kts 290°
2026-05-05 17:15 37.65534 126.54783 8696 ft 240 kts 290°
2026-05-05 17:15 37.66151 126.52837 8181 ft 238 kts 290°
2026-05-05 17:15 37.66762 126.50907 7714 ft 234 kts 289°
2026-05-05 17:16 37.67183 126.48932 7183 ft 233 kts 279°
2026-05-05 17:16 37.67419 126.46927 6700 ft 230 kts 276°
2026-05-05 17:16 37.67621 126.44932 6247 ft 228 kts 276°
2026-05-05 17:16 37.67820 126.42954 5784 ft 226 kts 276°
2026-05-05 17:17 37.67937 126.40984 5287 ft 224 kts 267°
2026-05-05 17:17 37.67775 126.39027 4771 ft 225 kts 261°
2026-05-05 17:17 37.67522 126.37066 4191 ft 228 kts 259°
2026-05-05 17:17 37.67158 126.35130 3692 ft 228 kts 245°
2026-05-05 17:18 37.66205 126.33627 3449 ft 214 kts 221°
2026-05-05 17:18 37.65084 126.32472 3295 ft 203 kts 218°
2026-05-05 17:18 37.63958 126.31490 3177 ft 192 kts 202°
2026-05-05 17:18 37.62666 126.31429 3029 ft 186 kts 167°
2026-05-05 17:19 37.61446 126.31947 3007 ft 185 kts 156°
2026-05-05 17:19 37.60350 126.32772 2926 ft 180 kts 147°
2026-05-05 17:19 37.59349 126.33664 2719 ft 174 kts 147°
2026-05-05 17:19 37.58379 126.34527 2472 ft 167 kts 146°
2026-05-05 17:20 37.57466 126.35338 2251 ft 154 kts 146°
2026-05-05 17:20 37.56617 126.36097 2045 ft 144 kts 145°
2026-05-05 17:20 37.55827 126.36804 1860 ft 137 kts 145°
2026-05-05 17:20 37.55051 126.37497 1694 ft 137 kts 145°
2026-05-05 17:21 37.54275 126.38191 1505 ft 137 kts 145°
2026-05-05 17:21 37.53492 126.38875 1318 ft 137 kts 145°
2026-05-05 17:21 37.52719 126.39578 1111 ft 136 kts 143°
2026-05-05 17:22 37.51189 126.40964 754 ft 136 kts 145°
2026-05-05 17:22 37.50421 126.41651 599 ft 136 kts 145°
2026-05-05 17:22 37.49648 126.42334 392 ft 136 kts 144°
2026-05-05 17:22 37.48882 126.43015 243 ft 135 kts 145°
2026-05-05 17:23 37.48118 126.43696 87 ft 135 kts 145°
2026-05-05 17:23 37.47400 126.44328 36 ft 105 kts 145°
2026-05-05 17:23 37.46965 126.44717 36 ft 49 kts 144°
2026-05-05 17:23 37.46814 126.44833 36 ft 14 kts 175°
2026-05-05 17:24 37.46753 126.44783 36 ft 11 kts 231°
2026-05-05 17:24 37.46717 126.44693 36 ft 12 kts 264°
2026-05-05 17:24 37.46696 126.44588 36 ft 13 kts 237°
2026-05-05 17:24 37.46640 126.44489 36 ft 15 kts 234°
2026-05-05 17:25 37.46655 126.44386 36 ft 14 kts 325°
2026-05-05 17:25 37.46708 126.44339 36 ft 15 kts 324°
2026-05-05 17:25 37.46820 126.44231 36 ft 15 kts 318°
2026-05-05 17:25 37.46872 126.44165 36 ft 7 kts 313°
2026-05-05 17:26 37.46877 126.44129 36 ft 4 kts 253°
2026-05-05 17:26 37.46858 126.44105 36 ft 4 kts 218°
2026-05-05 17:26 37.46829 126.44075 36 ft 6 kts 219°
2026-05-05 17:26 37.46816 126.44062 36 ft 1 kts 219°
2026-05-05 17:27 37.46811 126.44057 36 ft 1 kts 219°
2026-05-05 17:27 37.46808 126.44054 36 ft 0 kts 219°